CW0234 Weather Reports


time (UTC)temp
F
wind
direction
speed
knots
gust
knots
rain 1hr
in
rain 24hr
in
rain mn
in
humidity
%
barometer
mb
20260507015323 70 0 3.5 5.2 0.00 0.00 0.00 63 1016.6
20260507014820 70 168 2.6 2.6 0.00 0.00 0.00 62 1016.8
20260507014316 71 174 0.9 1.7 0.00 0.00 0.00 61 1017.0
20260507013812 71 289 2.6 4.3 0.00 0.00 0.00 60 1016.8
20260507013310 71 355 2.6 4.3 0.00 0.00 0.00 59 1016.8
20260507012807 72 338 1.7 2.6 0.00 0.00 0.00 59 1016.7
20260507012306 72 159 0.9 0.9 0.00 0.00 0.00 59 1016.6
20260507011800 71 348 1.7 4.3 0.00 0.00 0.00 59 1016.6
20260507011257 71 231 2.6 2.6 0.00 0.00 0.00 59 1016.6
20260507010756 72 188 2.6 2.6 0.00 0.00 0.00 59 1016.5
20260507010252 72 162 1.7 1.7 0.00 0.00 0.00 60 1016.4
20260507005750 73 354 2.6 4.3 0.00 0.00 0.00 57 1016.5
20260507005246 73 31 3.5 5.2 0.00 0.00 0.00 59 1016.5
20260507004743 73 163 1.7 2.6 0.00 0.00 0.00 57 1016.3
20260507004241 73 296 2.6 2.6 0.00 0.00 0.00 56 1016.3
20260507003737 73 301 3.5 5.2 0.00 0.00 0.00 55 1016.5
20260507003232 74 189 1.7 1.7 0.00 0.00 0.00 55 1016.2
20260507002728 74 317 3.5 4.3 0.00 0.00 0.00 55 1016.4
20260507002224 74 172 0.9 0.9 0.00 0.00 0.00 56 1016.3
20260507001721 75 184 0.9 1.7 0.00 0.00 0.00 54 1016.3
20260507001219 74 201 1.7 1.7 0.00 0.00 0.00 55 1016.4
20260507000715 74 294 2.6 5.2 0.00 0.00 0.00 55 1016.3
20260507000212 76 355 2.6 4.3 0.00 0.00 0.00 54 1016.1
20260506235708 76 172 1.7 1.7 0.00 0.00 0.00 53 1016.4
20260506235203 75 1 3.5 6.1 0.00 0.00 0.00 53 1016.2
20260506234700 76 131 1.7 2.6 0.00 0.00 0.00 53 1016.2
20260506234157 76 32 2.6 4.3 0.00 0.00 0.00 52 1016.3
20260506233655 76 231 3.5 5.2 0.00 0.00 0.00 52 1016.1
20260506233151 76 190 1.7 2.6 0.00 0.00 0.00 53 1016.2
20260506232648 77 294 3.5 5.2 0.00 0.00 0.00 52 1016.1
20260506232143 76 209 1.7 1.7 0.00 0.00 0.00 52 1016.3
20260506231640 76 356 2.6 5.2 0.00 0.00 0.00 52 1016.3
20260506231139 79 171 0.9 0.9 0.00 0.00 0.00 51 1016.4
20260506230635 77 167 0.9 0.9 0.00 0.00 0.00 51 1016.3
20260506230132 77 132 1.7 1.7 0.00 0.00 0.00 51 1016.3
20260506225629 76 19 3.5 4.3 0.00 0.00 0.00 52 1016.5
20260506225125 76 11 2.6 2.6 0.00 0.00 0.00 51 1016.5
20260506224622 77 23 7.0 7.8 0.00 0.00 0.00 51 1016.6
20260506224118 78 174 1.7 1.7 0.00 0.00 0.00 50 1016.6
20260506223615 78 342 3.5 5.2 0.00 0.00 0.00 50 1016.8
20260506223111 77 182 0.9 0.9 0.00 0.00 0.00 50 1016.7
20260506222608 77 166 2.6 4.3 0.00 0.00 0.00 50 1016.5
20260506222104 77 172 0.9 0.9 0.00 0.00 0.00 51 1016.5
20260506221602 77 149 2.6 4.3 0.00 0.00 0.00 50 1016.9
20260506221100 77 203 1.7 1.7 0.00 0.00 0.00 48 1017.0
20260506220556 78 183 1.7 1.7 0.00 0.00 0.00 49 1016.9
20260506220051 77 174 0.9 1.7 0.00 0.00 0.00 49 1017.3
20260506215548 77 183 0.9 1.7 0.00 0.00 0.00 49 1017.3
20260506215044 76 177 1.7 1.7 0.00 0.00 0.00 50 1017.3
20260506214541 77 242 2.6 5.2 0.00 0.00 0.00 49 1017.2
20260506214038 76 169 0.0 0.9 0.00 0.00 0.00 51 1017.5
20260506213536 75 167 0.9 0.9 0.00 0.00 0.00 53 1017.4
20260506213033 76 169 0.9 0.9 0.00 0.00 0.00 52 1017.6
20260506212530 76 169 0.9 1.7 0.00 0.00 0.00 51 1017.5
20260506212025 76 175 0.9 0.9 0.00 0.00 0.00 52 1017.8
20260506211521 75 167 0.9 1.7 0.00 0.00 0.00 53 1017.6
20260506211018 73 170 0.9 0.9 0.00 0.00 0.00 55 1017.9
20260506210515 74 339 3.5 5.2 0.00 0.00 0.00 53 1017.9
20260506210012 74 204 1.7 1.7 0.00 0.00 0.00 53 1017.9
20260506205508 74 179 0.0 0.9 0.00 0.00 0.00 54 1017.8
20260506205003 74 183 2.6 2.6 0.00 0.00 0.00 54 1018.0
20260506204502 74 190 1.7 1.7 0.00 0.00 0.00 54 1018.1
20260506203958 72 174 0.9 0.9 0.00 0.00 0.00 55 1018.1
20260506203456 72 165 0.0 0.0 0.00 0.00 0.00 56 1018.0
20260506202953 73 202 1.7 1.7 0.00 0.00 0.00 55 1018.2
20260506202450 72 183 1.7 1.7 0.00 0.00 0.00 57 1018.1
20260506201946 71 228 3.5 5.2 0.00 0.00 0.00 57 1018.3
20260506201444 73 150 0.0 0.9 0.00 0.00 0.00 56 1018.3
20260506200940 73 176 0.0 0.9 0.00 0.00 0.00 55 1018.2
20260506200437 72 169 1.7 1.7 0.00 0.00 0.00 56 1018.2
20260506195933 71 180 0.0 0.0 0.00 0.00 0.00 57 1018.3
20260506195430 71 175 0.0 0.9 0.00 0.00 0.00 59 1018.3
20260506194927 71 169 0.9 1.7 0.00 0.00 0.00 58 1018.4
20260506194424 71 173 0.0 0.9 0.00 0.00 0.00 58 1018.3
20260506193921 70 166 1.7 2.6 0.00 0.00 0.00 58 1018.4
20260506193418 69 168 0.9 0.9 0.00 0.00 0.00 60 1018.3
20260506192914 70 258 2.6 2.6 0.00 0.00 0.00 60 1018.6
20260506192411 70 335 2.6 4.3 0.00 0.00 0.00 60 1018.9
20260506191908 70 207 0.9 1.7 0.00 0.00 0.00 59 1018.6
20260506191405 69 161 0.9 1.7 0.00 0.00 0.00 60 1018.8
20260506190902 69 334 2.6 4.3 0.00 0.00 0.00 62 1018.7
20260506190358 68 188 1.7 1.7 0.00 0.00 0.00 63 1018.9
20260506185855 69 170 0.0 0.9 0.00 0.00 0.00 62 1018.9
20260506185352 69 178 0.9 0.9 0.00 0.00 0.00 62 1019.0
20260506184849 69 186 0.9 1.7 0.00 0.00 0.00 60 1019.0
20260506184346 69 172 0.0 0.9 0.00 0.00 0.00 62 1018.9
20260506183844 68 164 0.0 0.0 0.00 0.00 0.00 63 1019.0
20260506183338 68 17 0.9 2.6 0.00 0.00 0.00 63 1019.1
20260506182836 68 146 0.9 0.9 0.00 0.00 0.00 63 1019.1
20260506182333 66 159 0.9 0.9 0.00 0.00 0.00 65 1019.1
20260506181831 66 166 0.9 0.9 0.00 0.00 0.00 66 1019.1
20260506181329 66 201 0.9 1.7 0.00 0.00 0.00 66 1019.2
20260506180825 66 229 1.7 1.7 0.00 0.00 0.00 67 1019.3
20260506180321 65 182 0.9 0.9 0.00 0.00 0.00 67 1019.3
20260506175818 64 173 0.0 0.0 0.00 0.00 0.00 69 1019.3
20260506175315 64 174 0.0 0.0 0.00 0.00 0.00 68 1019.2
20260506174812 64 187 1.7 2.6 0.00 0.00 0.00 69 1019.1
20260506174309 66 176 0.0 0.9 0.00 0.00 0.00 68 1019.2
20260506173807 66 183 1.7 1.7 0.00 0.00 0.00 67 1019.4
20260506173303 65 178 0.9 0.9 0.00 0.00 0.00 67 1019.2
20260506172800 66 158 0.9 1.7 0.00 0.00 0.00 67 1019.1
20260506172257 65 199 1.7 1.7 0.00 0.00 0.00 67 1019.3
20260506171755 64 156 0.0 0.9 0.00 0.00 0.00 70 1019.2
20260506171251 64 168 0.9 0.9 0.00 0.00 0.00 72 1019.4
20260506170749 63 190 0.9 1.7 0.00 0.00 0.00 72 1019.1
20260506170245 62 181 0.9 0.9 0.00 0.00 0.00 73 1019.3
20260506165744 62 179 0.0 0.9 0.00 0.00 0.00 74 1019.5
20260506165241 62 162 0.9 1.7 0.00 0.00 0.00 74 1019.4
20260506164738 62 192 3.5 5.2 0.00 0.00 0.00 74 1019.4
20260506164235 63 179 0.0 0.9 0.00 0.00 0.00 73 1019.2
20260506163732 63 187 0.9 1.7 0.00 0.00 0.00 72 1019.3
20260506163226 62 171 0.0 0.9 0.00 0.00 0.00 75 1019.2
20260506162722 62 168 0.0 0.0 0.00 0.00 0.00 75 1019.4
20260506162220 62 174 0.0 0.0 0.00 0.00 0.00 75 1019.2
20260506161718 62 176 0.0 0.9 0.00 0.00 0.00 75 1019.3
20260506161215 61 176 0.9 0.9 0.00 0.00 0.00 75 1019.4
20260506160712 61 174 0.9 0.9 0.00 0.00 0.00 76 1019.4
20260506160209 60 173 0.0 0.0 0.00 0.00 0.00 77 1019.3
20260506155707 60 183 0.9 0.9 0.00 0.00 0.00 78 1019.4
20260506155204 60 179 0.9 0.9 0.00 0.00 0.00 78 1019.3
20260506153311 60 171 0.9 0.9 0.00 0.00 0.00 79 1019.2
20260506152808 60 169 0.0 0.0 0.00 0.00 0.00 79 1019.4
20260506152306 60 159 0.9 1.7 0.00 0.00 0.00 79 1019.2
20260506151805 59 175 0.0 0.0 0.00 0.00 0.00 80 1019.3
20260506151301 59 168 0.0 0.0 0.00 0.00 0.00 80 1019.3
20260506150757 59 173 0.0 0.0 0.00 0.00 0.00 80 1019.3
20260506150303 59 160 0.9 1.7 0.00 0.00 0.00 80 1019.5
20260506145751 59 173 0.0 0.0 0.00 0.00 0.00 81 1019.4
20260506145248 58 169 0.0 0.0 0.00 0.00 0.00 81 1019.5
20260506144745 58 174 0.0 0.0 0.00 0.00 0.00 81 1019.6
20260506144242 58 168 0.0 0.0 0.00 0.00 0.00 81 1019.4
20260506143740 58 173 0.0 0.9 0.00 0.00 0.00 82 1019.5
20260506143237 58 153 1.7 1.7 0.00 0.00 0.00 81 1019.3
20260506142736 58 173 0.0 0.0 0.00 0.00 0.00 82 1019.3
20260506142233 58 173 0.0 0.0 0.00 0.00 0.00 82 1019.3
20260506141731 57 164 0.9 0.9 0.00 0.00 0.00 82 1019.1
20260506141229 57 170 0.0 0.0 0.00 0.00 0.00 83 1019.2
20260506140726 57 172 0.0 0.0 0.00 0.00 0.00 83 1019.1
20260506140223 57 171 0.0 0.0 0.00 0.00 0.00 83 1019.2
20260506135720 57 171 0.0 0.0 0.00 0.00 0.00 83 1019.1
20260506135216 57 172 0.0 0.0 0.00 0.00 0.00 83 1019.1
20260506134713 57 174 0.0 0.0 0.00 0.00 0.00 84 1018.8
20260506134209 57 173 0.0 0.0 0.00 0.00 0.00 84 1018.7
20260506133707 57 175 0.0 0.0 0.00 0.00 0.00 84 1018.7
20260506133203 56 173 0.0 0.0 0.00 0.00 0.00 84 1018.6
20260506132701 56 172 0.0 0.0 0.00 0.00 0.00 84 1018.9
20260506132157 56 172 0.0 0.0 0.00 0.00 0.00 84 1018.6
20260506131655 56 172 0.0 0.0 0.00 0.00 0.00 84 1018.5
20260506131151 56 172 0.0 0.0 0.00 0.00 0.00 84 1018.5
20260506130648 57 172 0.0 0.0 0.00 0.00 0.00 83 1018.2
20260506130145 57 172 0.0 0.0 0.00 0.00 0.00 83 1018.4
20260506125643 57 172 0.0 0.0 0.00 0.00 0.00 83 1018.2
20260506125141 57 171 0.0 0.0 0.00 0.00 0.00 83 1018.4
20260506124639 57 171 0.0 0.0 0.00 0.00 0.00 83 1018.2
20260506124136 57 165 0.9 0.9 0.00 0.00 0.00 83 1018.5
20260506123633 57 173 0.0 0.0 0.00 0.00 0.00 83 1018.3
20260506123132 57 172 0.0 0.0 0.00 0.00 0.00 83 1018.3
20260506122628 57 171 0.0 0.0 0.00 0.00 0.00 83 1018.2
20260506122126 57 172 0.0 0.0 0.00 0.00 0.00 83 1018.3
20260506121624 57 170 0.9 0.9 0.00 0.00 0.00 82 1018.2
20260506121120 57 199 1.7 1.7 0.00 0.00 0.00 83 1018.0
20260506120618 57 173 0.0 0.9 0.00 0.00 0.00 83 1018.3
20260506120115 57 177 1.7 1.7 0.00 0.00 0.00 83 1018.2
20260506115614 57 176 0.9 0.9 0.00 0.00 0.00 84 1018.2
20260506115111 57 173 0.0 0.0 0.00 0.00 0.00 85 1018.1
20260506114608 57 171 0.9 0.9 0.00 0.00 0.00 84 1017.9
20260506114106 57 172 0.9 0.9 0.00 0.00 0.00 85 1017.9
20260506113604 57 170 0.0 0.0 0.00 0.00 0.00 85 1017.9
20260506113101 57 172 0.0 0.0 0.00 0.00 0.00 85 1017.9
20260506112557 57 176 0.0 0.0 0.00 0.00 0.00 84 1017.8
20260506112055 57 172 0.0 0.0 0.00 0.00 0.00 84 1017.8
20260506111553 57 183 0.0 0.0 0.00 0.00 0.00 84 1017.8
20260506111050 57 174 0.0 0.0 0.00 0.00 0.00 84 1017.9
20260506110548 57 171 0.0 0.0 0.00 0.00 0.00 84 1018.0
20260506110045 57 170 0.0 0.0 0.00 0.00 0.00 84 1017.8
20260506105541 57 165 0.0 0.0 0.00 0.00 0.00 84 1017.9
20260506105038 57 176 0.0 0.0 0.00 0.00 0.00 84 1017.8
20260506104536 57 173 0.0 0.0 0.00 0.00 0.00 84 1017.8
20260506104034 57 172 0.0 0.0 0.00 0.00 0.00 84 1017.6
20260506103531 57 185 0.9 0.9 0.00 0.00 0.00 84 1017.9
20260506103027 57 173 0.0 0.0 0.00 0.00 0.00 84 1017.9
20260506102526 57 178 0.0 0.9 0.00 0.00 0.00 83 1017.8
20260506102023 57 173 0.0 0.0 0.00 0.00 0.00 83 1017.6
20260506101519 57 175 0.0 0.0 0.00 0.00 0.00 83 1017.6
20260506101016 57 174 0.0 0.0 0.00 0.00 0.00 84 1017.5
20260506100515 57 173 0.0 0.0 0.00 0.00 0.00 83 1017.8
20260506100013 57 173 0.0 0.0 0.00 0.00 0.00 83 1017.8
20260506095511 57 173 0.0 0.0 0.00 0.00 0.00 83 1017.6
20260506095006 57 171 0.0 0.0 0.00 0.00 0.00 83 1017.8
20260506094505 57 171 0.0 0.0 0.00 0.00 0.00 83 1017.6
20260506094003 57 174 0.0 0.0 0.00 0.00 0.00 82 1017.6
20260506093501 57 178 0.0 0.0 0.00 0.00 0.00 82 1017.8
20260506092958 57 174 0.0 0.0 0.00 0.00 0.00 82 1017.5
20260506092456 57 175 0.0 0.0 0.00 0.00 0.00 82 1017.8
20260506091952 57 173 0.0 0.0 0.00 0.00 0.00 82 1017.6
20260506091450 57 172 0.0 0.0 0.00 0.00 0.00 82 1017.9
20260506090947 57 170 0.0 0.0 0.00 0.00 0.00 82 1017.5
20260506090445 57 171 0.0 0.0 0.00 0.00 0.00 82 1017.9
20260506085941 57 171 0.0 0.0 0.00 0.00 0.00 83 1017.8
20260506085438 57 172 0.0 0.0 0.00 0.00 0.00 82 1017.8
20260506084934 57 173 0.0 0.0 0.00 0.00 0.00 83 1017.6
20260506084432 57 174 0.0 0.0 0.00 0.00 0.00 82 1018.0
20260506083927 57 170 0.0 0.0 0.00 0.00 0.00 82 1017.5
20260506083425 57 170 0.0 0.0 0.00 0.00 0.00 82 1017.6
20260506082922 57 170 0.0 0.0 0.00 0.00 0.00 82 1017.5
20260506082419 57 171 0.0 0.9 0.00 0.00 0.00 82 1017.6
20260506081914 58 171 0.0 0.0 0.00 0.00 0.00 82 1017.6
20260506081414 58 171 0.0 0.0 0.00 0.00 0.00 82 1017.8
20260506080910 58 171 0.0 0.0 0.00 0.00 0.00 82 1017.8
20260506080407 57 171 0.0 0.0 0.00 0.00 0.00 82 1017.9
20260506073351 58 166 0.9 0.9 0.00 0.00 0.00 80 1017.3
20260506072847 58 174 0.0 0.0 0.00 0.00 0.00 80 1017.6
20260506072345 58 171 0.0 0.9 0.00 0.00 0.00 80 1017.4
20260506071843 58 171 0.0 0.9 0.00 0.00 0.00 80 1017.4
20260506071341 58 170 0.9 0.9 0.00 0.00 0.00 80 1017.3
20260506070837 58 170 0.0 0.0 0.00 0.00 0.00 80 1017.4
20260506070334 58 170 0.0 0.0 0.00 0.00 0.00 80 1017.3
20260506062312 58 203 1.7 1.7 0.00 0.00 0.00 78 1017.0
20260506061808 58 169 0.0 0.9 0.00 0.00 0.00 78 1016.7
20260506061304 58 160 0.9 1.7 0.00 0.00 0.00 79 1017.0
20260506060803 58 176 0.9 0.9 0.00 0.00 0.00 80 1016.8
20260506060301 58 166 0.9 0.9 0.00 0.00 0.00 79 1017.1
20260506051232 59 195 2.6 2.6 0.00 0.00 0.00 78 1016.6
20260506050730 60 167 0.9 0.9 0.00 0.00 0.00 77 1016.4
20260506050227 60 172 0.0 0.9 0.00 0.00 0.00 76 1016.4
20260506044718 60 174 0.0 0.0 0.00 0.00 0.00 75 1016.4
20260506044215 60 172 0.0 0.0 0.00 0.00 0.00 74 1016.5
20260506043712 60 170 0.9 1.7 0.00 0.00 0.00 74 1016.1
20260506043210 60 173 0.0 0.0 0.00 0.00 0.00 74 1016.3
20260506042709 60 172 0.0 0.0 0.00 0.00 0.00 74 1016.0
20260506042206 60 171 0.0 0.0 0.00 0.00 0.00 74 1016.1
20260506041705 60 173 0.0 0.0 0.00 0.00 0.00 74 1016.2
20260506041201 60 172 0.0 0.0 0.00 0.00 0.00 74 1015.9
20260506040659 60 172 0.0 0.9 0.00 0.00 0.00 74 1015.9
20260506040155 60 177 0.9 0.9 0.00 0.00 0.00 74 1015.9
20260506035652 60 174 0.9 0.9 0.00 0.00 0.00 74 1015.8
20260506035149 60 172 0.0 0.0 0.00 0.00 0.00 74 1015.8
20260506034646 60 217 1.7 1.7 0.00 0.00 0.00 73 1015.5
20260506034143 60 171 0.0 0.9 0.00 0.00 0.00 73 1015.5
20260506033640 60 177 0.9 0.9 0.00 0.00 0.00 73 1015.5
20260506033137 60 153 0.9 0.9 0.00 0.00 0.00 73 1015.3
20260506032634 60 175 1.7 1.7 0.00 0.00 0.00 74 1015.3
20260506032131 60 165 0.9 0.9 0.00 0.00 0.00 74 1015.3
20260506031628 60 174 1.7 1.7 0.00 0.00 0.00 74 1015.2
20260506031125 60 209 1.7 1.7 0.00 0.00 0.00 74 1015.3
20260506030624 60 170 0.0 0.9 0.00 0.00 0.00 74 1015.3
20260506030121 60 166 0.9 0.9 0.00 0.00 0.00 74 1015.0
20260506025617 60 172 0.0 0.0 0.00 0.00 0.00 75 1014.9
20260506025113 60 173 0.9 1.7 0.00 0.00 0.00 74 1015.0
20260506024611 60 223 0.9 1.7 0.00 0.00 0.00 74 1014.8
20260506024107 60 174 2.6 4.3 0.00 0.00 0.00 74 1014.6
20260506023603 60 298 0.9 1.7 0.00 0.00 0.00 74 1015.1
20260506023101 61 180 0.9 1.7 0.00 0.00 0.00 74 1014.7
20260506022558 61 222 0.9 1.7 0.00 0.00 0.00 74 1014.6
20260506022055 61 179 0.9 0.9 0.00 0.00 0.00 73 1014.6
20260506021553 61 190 0.9 1.7 0.00 0.00 0.00 73 1014.6
20260506021050 61 170 0.0 0.0 0.00 0.00 0.00 73 1014.6
20260506020547 61 171 0.0 0.0 0.00 0.00 0.00 72 1014.6
20260506020045 61 171 0.0 0.0 0.00 0.00 0.00 72 1014.7